SCP
3 3 4 3 3 2 1 1 1 1 0 0 0 1 1 1 1 1 1 1 1 1 1 1 1 1 1 0 0 0 0 0 0 0 0 0 1 1 1 0 0 0 0
3 3 3 3 3 2 2 1 1 1 1 1 1 1 1 1 1 1 1 1 1 1 1 1 1 1 0 0 0 0 0 0 0 0 0 0 0 0 1 1 1 1 1
4 4 3 3 3 2 2 2 2 1 1 1 1 1 1 1 1 1 1 1 1 1 1 1 1 0 0 0 0 0 0 0 0 0 0 0 0 0 0 1 1 1 1
5 4 4 3 3 3 2 2 2 2 2 2 2 2 2 1 1 1 1 1 1 1 1 1 0 0 0 0 0 0 0 0 0 0 0 0 0 0 0 1 1 1 1
5 5 4 4 3 3 2 2 2 2 2 2 2 2 2 2 1 1 1 1 1 1 1 0 0 0 0 0 0 0 0 0 0 0 0 0 0 1 1 1 1 1 1
4 5 4 4 3 3 2 2 2 2 2 2 2 2 2 2 1 1 1 1 1 1 1 0 0 0 0 0 0 0 0 0 0 0 0 1 1 1 1 1 1 0 0
4 4 4 4 3 3 3 2 2 2 2 2 2 2 2 2 2 1 1 1 1 1 1 1 0 0 0 0 0 0 0 1 1 0 0 1 1 1 1 1 0 0 0
4 4 4 3 3 3 3 3 3 3 2 2 2 2 2 2 2 2 2 1 1 1 1 1 0 0 0 0 0 0 0 0 1 1 1 1 1 1 1 1 1 0 0
4 4 3 3 3 3 3 3 3 3 3 2 2 2 2 2 2 2 2 2 1 1 1 1 1 0 0 0 0 0 0 0 1 1 1 1 1 1 1 1 1 1 1
4 4 3 3 3 3 3 3 3 3 3 2 2 2 2 2 2 2 2 2 1 1 1 1 1 1 1 1 0 0 0 0 0 1 1 1 1 1 1 1 1 1 1
4 4 4 4 3 2 2 3 3 3 3 3 2 2 2 2 1 1 1 2 2 1 1 1 1 1 1 1 0 0 0 0 0 1 1 1 1 1 1 1 1 1 1
4 4 4 4 3 3 3 3 3 3 3 2 2 2 2 2 2 2 2 2 2 1 1 1 1 1 1 1 0 0 0 0 1 1 1 1 1 1 1 1 1 1 1
4 4 5 4 4 3 3 4 4 4 4 3 3 3 2 2 2 2 3 2 2 1 1 1 1 1 1 0 0 0 1 1 1 1 1 1 1 1 1 1 1 1 1
6 6 6 5 5 5 5 5 5 5 5 5 4 3 3 2 3 3 3 3 2 2 1 1 1 1 0 1 1 1 1 1 1 1 1 1 2 2 1 1 1 1 1
8 7 7 6 6 7 7 6 5 5 5 5 4 3 3 2 2 3 3 3 3 2 2 2 1 1 1 1 1 1 1 1 1 1 1 2 2 2 2 1 1 1 1
10 9 9 8 8 8 8 7 6 5 5 5 4 4 3 3 3 3 4 4 4 3 3 3 3 2 2 2 2 2 2 2 2 2 2 2 2 2 2 2 2 1 1
12 12 12 10 9 9 8 8 7 6 6 5 5 5 5 4 4 4 5 5 5 6 6 5 4 3 3 3 3 3 3 3 3 2 2 1 1 1 1 2 2 2 2
13 13 13 11 10 9 9 9 8 7 6 6 6 6 7 6 6 6 6 6 7 8 7 6 4 4 4 3 3 3 3 4 3 2 2 1 1 1 1 2 2 2 2
13 12 12 12 11 10 10 10 8 7 6 6 6 6 7 7 6 6 7 7 8 8 7 5 4 3 4 3 3 2 3 3 3 2 2 2 2 1 1 1 2 2 2
12 12 12 13 13 12 11 10 9 7 6 6 6 6 7 6 6 6 6 7 7 7 6 4 3 3 3 3 2 2 2 2 2 2 2 2 2 1 1 2 2 2 1
13 13 13 14 15 14 12 11 9 7 6 6 6 6 6 5 5 5 5 6 6 5 4 3 3 2 2 2 2 1 1 1 2 2 2 1 1 1 1 2 2 1 1
15 15 14 14 15 15 14 12 9 7 6 5 5 5 5 5 4 4 4 5 6 5 3 3 2 2 2 2 2 1 1 1 1 1 1 1 1 1 1 1 1 1 1
17 15 14 14 13 13 12 11 9 7 6 5 5 5 5 5 4 4 4 4 5 4 3 2 2 2 2 2 2 1 1 1 1 1 0 0 0 0 0 0 0 0 1
16 15 13 13 11 10 9 8 7 7 6 6 5 5 5 5 5 4 4 4 3 3 3 3 2 2 2 2 2 1 1 1 1 0 0 0 0 0 0 0 0 0 0
14 13 12 12 10 8 6 6 6 6 7 6 5 4 4 5 5 4 4 4 4 3 3 3 3 2 2 2 2 1 1 0 0 0 0 0 0 0 0 0 0 0 0
11 12 12 11 9 7 6 6 6 6 6 5 4 3 4 4 5 4 4 4 4 4 4 3 3 3 2 2 2 1 1 0 0 0 0 0 0 0 0 0 0 0 0
Wind_Speed
16 18 19 17 16 16 16 16 15 14 13 13 13 12 12 12 12 12 12 12 12 11 12 11 10 10 10 11 11 12 12 12 13 14 15 14 13 12 10 8 9 12 13
18 18 19 18 17 16 16 16 15 15 14 13 13 12 12 12 11 11 11 11 11 11 12 11 11 10 10 10 10 10 10 10 10 12 13 13 12 11 10 9 11 10 12
19 18 18 17 17 17 16 16 15 15 14 14 13 13 12 11 11 11 11 11 10 11 11 11 11 11 10 10 9 8 8 7 8 9 10 9 10 10 11 13 15 13 11
20 16 16 18 17 17 16 16 16 16 15 15 14 13 12 12 11 11 11 11 10 10 11 11 11 10 10 9 8 7 6 5 5 6 5 5 8 11 11 11 12 11 10
17 15 17 19 18 17 17 17 16 16 16 15 14 14 13 12 11 10 10 10 10 10 10 10 10 10 9 8 7 5 3 3 4 6 2 5 8 11 10 10 10 9 8
17 16 17 17 17 17 17 17 17 16 16 15 15 14 13 12 11 10 10 10 10 9 10 10 10 9 8 7 5 3 2 3 5 6 3 8 9 10 11 9 8 8 7
16 16 18 16 17 17 17 17 16 16 15 15 14 13 12 11 10 10 10 10 9 9 9 10 9 8 7 6 4 2 3 5 6 2 3 8 10 12 10 9 8 7 6
16 17 16 17 17 17 17 16 15 15 14 14 13 13 12 11 10 10 9 10 9 9 9 9 8 7 6 5 3 3 5 8 4 1 6 9 12 12 10 8 7 6 5
16 17 16 15 15 16 16 15 15 14 14 13 13 12 12 11 10 10 9 9 9 9 9 9 8 7 6 5 4 5 7 8 7 1 7 8 12 12 10 8 7 6 5
14 17 17 16 15 14 13 15 16 15 14 14 14 14 13 12 11 11 10 9 10 9 9 8 8 7 6 5 6 6 7 8 6 0 5 8 13 12 10 8 7 6 5
14 14 15 16 15 14 14 15 15 15 14 14 13 14 12 9 10 9 10 11 11 10 10 9 8 8 7 8 8 8 7 5 3 3 4 11 13 12 10 8 6 6 6
14 13 12 14 14 14 12 12 10 10 11 10 9 10 8 6 6 8 11 13 11 11 10 10 10 9 8 6 9 9 5 6 0 3 5 11 11 11 9 7 6 6 6
9 10 11 12 11 11 9 10 7 6 8 8 9 9 6 5 5 5 6 7 7 9 8 8 9 7 7 6 5 6 5 2 3 5 6 8 9 9 8 6 6 5 5
8 8 7 9 9 6 8 8 6 5 6 5 6 8 5 2 3 4 4 6 6 5 6 6 6 7 7 5 4 3 2 2 4 5 6 9 8 8 7 6 5 5 4
6 6 7 6 6 4 5 5 5 5 5 5 5 5 4 3 2 2 2 4 6 5 6 6 6 6 5 3 2 1 2 4 5 6 5 9 8 7 7 7 6 5 4
5 5 5 7 7 5 5 4 4 4 4 5 5 5 3 3 2 1 1 2 3 3 3 4 3 3 2 1 1 2 3 3 5 5 6 7 8 8 8 7 7 6 6
4 3 3 6 6 5 5 4 3 3 4 4 5 6 5 4 4 2 1 2 2 0 1 1 1 1 2 2 2 2 2 3 4 5 5 5 6 8 10 10 10 9 9
4 4 3 3 4 5 4 2 2 3 4 3 3 4 6 4 4 3 2 3 2 0 0 1 0 1 2 2 2 2 3 3 3 4 4 5 5 5 8 12 12 12 11
5 4 4 4 4 4 4 3 1 2 3 3 2 3 4 4 4 4 3 3 2 2 1 2 1 1 1 2 2 2 2 3 3 4 5 6 6 6 6 9 13 13 13
6 5 4 4 4 4 4 2 2 2 2 2 1 1 3 3 4 4 3 3 3 2 2 2 3 2 2 2 2 3 3 3 3 4 5 5 5 7 6 6 6 9 14
6 6 5 4 4 3 2 3 3 2 2 2 2 2 1 1 2 3 3 3 3 3 3 4 3 3 2 2 2 2 3 4 4 4 4 4 5 6 6 6 5 5 6
6 5 4 3 3 2 2 2 3 3 3 3 3 3 3 2 0 2 2 2 3 3 4 4 3 2 2 2 2 3 2 2 2 4 4 4 5 5 6 7 6 5 5
7 6 4 4 3 3 3 3 4 3 3 3 3 2 4 3 2 2 3 2 3 3 3 4 3 3 2 2 1 1 2 3 3 2 4 4 4 4 4 4 6 5 6
7 6 6 5 5 4 4 4 5 4 4 3 3 3 5 5 5 5 4 4 4 4 4 4 4 3 3 2 2 2 2 2 3 3 2 2 4 4 4 4 4 4 5
8 8 7 6 6 6 5 5 5 5 5 5 5 6 6 6 7 7 6 6 5 5 5 5 5 4 3 3 2 2 2 2 2 3 3 3 2 3 3 3 3 3 3
9 9 8 8 8 7 7 7 8 8 8 8 7 6 5 5 6 8 8 7 6 5 6 6 6 7 6 6 4 4 2 2 1 2 3 3 3 2 2 2 2 2 2
Wind_Direction
127 134 138 138 140 142 143 141 139 137 134 129 124 119 114 108 105 103 102 101 103 105 107 106 103 99 94 90 88 89 92 95 96 95 94 92 91 89 86 92 114 94 97
131 136 139 139 143 145 146 145 143 141 138 135 132 128 124 119 115 113 110 108 108 109 111 109 108 106 104 99 97 99 102 106 109 112 112 105 99 90 77 65 85 102 102
131 138 141 141 145 147 148 147 145 144 142 140 137 135 131 127 123 120 116 114 114 114 115 115 114 112 110 109 109 113 119 123 130 140 145 124 110 97 88 87 94 103 102
132 143 145 143 146 148 149 148 147 148 147 145 143 141 138 134 131 128 125 122 121 120 120 120 118 117 117 116 119 126 137 148 162 182 192 130 120 108 102 99 102 104 104
134 143 140 148 148 150 150 150 150 151 150 149 148 146 143 140 136 134 132 129 126 126 126 125 124 123 123 123 126 136 159 187 211 232 226 111 105 121 115 112 110 110 108
141 143 143 150 149 150 151 152 153 152 152 152 151 149 147 145 142 141 139 135 134 133 132 130 130 130 130 131 134 152 215 254 264 239 183 124 119 130 125 123 121 119 118
147 142 146 150 148 150 152 153 154 153 153 153 152 151 150 148 148 148 146 143 143 142 138 135 135 136 138 141 152 209 265 282 268 281 125 115 125 136 133 132 129 128 130
148 141 144 150 150 151 153 153 153 152 151 152 152 151 150 151 152 152 151 150 149 147 144 142 142 143 145 151 175 246 278 292 284 164 119 114 134 138 138 138 138 139 140
149 140 149 155 154 154 152 152 151 150 150 151 151 152 153 156 158 159 158 155 153 152 152 153 155 156 160 171 205 254 278 294 298 260 123 122 140 140 142 145 149 153 154
152 148 157 159 158 158 156 155 153 152 152 153 155 158 159 161 164 166 165 163 162 163 164 165 169 173 180 196 221 247 273 294 276 51 110 134 144 143 145 150 159 165 167
152 152 160 160 163 167 162 157 156 156 157 157 162 164 165 172 173 176 177 164 172 174 174 177 186 191 197 212 229 242 261 263 261 93 113 141 147 146 149 157 168 174 177
160 160 163 161 166 174 166 153 163 167 163 173 169 170 183 184 178 179 163 167 180 184 184 190 198 205 216 215 220 229 240 237 196 104 119 144 146 147 151 160 170 179 185
162 157 164 161 167 176 157 154 169 172 163 184 173 176 193 189 177 158 156 165 184 191 196 192 200 215 215 220 196 203 222 203 118 111 123 137 144 146 149 158 166 173 178
148 159 160 155 162 176 149 158 163 163 160 175 168 179 188 186 181 163 169 177 187 197 202 188 206 212 219 218 197 209 198 124 115 109 128 139 141 140 147 154 156 156 153
134 158 158 152 157 158 134 152 159 161 162 166 156 175 179 171 183 184 195 186 193 195 197 204 204 201 205 200 186 158 81 73 92 112 122 126 126 128 135 143 147 144 140
134 149 149 158 156 152 134 150 157 151 150 157 143 159 175 163 159 182 262 238 221 190 189 204 197 162 139 110 99 81 56 68 92 104 115 111 104 106 109 115 122 121 119
127 139 142 152 145 141 139 163 162 152 151 151 150 163 180 185 168 168 215 251 262 222 132 134 67 110 140 123 88 81 80 55 76 96 115 114 106 96 97 97 100 99 97
104 112 107 125 118 113 111 118 144 152 140 138 158 169 176 189 166 165 186 221 242 46 91 100 81 104 103 99 84 69 82 78 73 85 99 110 110 105 95 96 94 92 90
67 87 92 93 97 103 103 113 150 133 136 129 153 166 169 176 176 176 187 203 205 182 170 184 149 108 113 96 101 87 65 75 66 72 85 93 97 101 103 100 95 91 88
53 62 72 78 87 96 106 114 106 123 120 112 140 170 154 166 183 183 183 192 195 182 152 110 111 97 106 118 111 84 59 64 68 70 78 84 91 100 102 103 97 88 86
53 55 63 69 80 91 124 148 149 142 117 102 83 57 77 141 191 190 183 182 185 175 156 142 132 133 125 113 106 95 63 52 55 58 65 77 80 81 84 85 89 91 87
50 54 64 71 76 87 112 129 137 130 117 101 75 57 50 61 77 192 157 159 155 142 136 138 138 138 130 136 139 134 134 98 53 53 55 64 72 78 81 80 82 84 94
46 42 40 54 71 76 86 97 103 97 91 83 75 57 48 53 61 72 95 107 110 112 111 110 118 128 140 141 100 131 150 150 117 66 60 60 63 67 77 91 86 86 90
49 48 49 55 61 64 82 105 112 114 108 94 84 75 60 48 46 51 62 75 84 86 92 96 85 96 128 145 126 86 82 108 136 130 97 78 78 72 67 80 89 91 94
49 50 49 54 61 59 66 87 95 92 91 84 79 74 62 51 45 45 46 54 61 71 81 81 83 79 80 81 98 99 89 85 92 133 140 139 108 92 90 81 87 99 110
47 48 48 51 57 58 63 71 83 90 92 89 81 78 68 56 49 47 51 53 55 61 69 76 80 78 74 68 63 58 66 86 88 103 128 147 137 119 111 103 112 115 121